Theta_e
297 299 302 304 305 306 307 309 310 311 310 310 310 311 310 309 310 310 310 309 309 307 307 307 307 306 305 304 303 302 300 299 299 298 296 295 295 294 292 292 292 292 290 289 288 287 286 286 286 286 286 285 285 285 285 286 287 287 285 284 283 283 287 284 286 282 281 279 281 283 281 282 281 280 283 281 281 281 283 279 280 282 282 282 281
296 297 300 302 303 304 305 306 309 310 309 310 308 308 309 309 309 308 308 309 308 307 307 307 307 306 305 303 303 301 300 299 298 298 297 295 294 294 293 292 291 291 290 289 289 288 287 286 286 286 286 286 285 285 285 285 286 286 284 284 284 283 283 284 284 285 282 280 281 280 281 280 282 279 283 283 279 279 282 281 279 279 280 278 281
296 297 298 300 302 303 304 304 305 306 307 309 309 308 308 307 307 307 307 307 307 308 307 307 306 305 304 303 301 301 300 299 297 297 297 296 293 293 293 292 292 290 289 289 289 289 287 286 285 285 285 285 284 285 285 286 286 286 285 284 284 282 281 285 286 282 282 281 281 282 281 280 279 281 279 281 278 279 280 278 279 277 276 278 281
296 297 297 296 299 302 303 304 304 304 305 305 307 308 309 307 306 306 306 304 304 304 306 306 305 304 303 302 301 301 299 299 298 297 297 296 295 293 292 292 292 292 291 290 289 289 288 287 285 285 285 285 284 284 285 286 286 286 285 283 284 282 281 283 284 285 282 282 281 282 281 282 280 279 279 279 280 279 280 277 276 278 276 278 278
295 296 295 295 295 298 302 303 303 303 304 304 303 304 305 305 303 304 304 303 302 301 301 302 304 303 303 302 301 300 299 299 298 298 297 297 296 295 294 293 293 292 291 291 290 289 289 288 287 285 285 285 284 285 285 285 286 286 285 283 283 282 280 282 281 281 284 283 280 279 279 278 278 279 279 281 277 277 275 278 277 278 278 276 276
295 295 294 294 294 295 298 302 302 303 303 301 301 302 302 302 302 301 303 303 301 301 300 300 300 303 303 302 301 300 299 299 298 298 298 297 297 296 294 294 293 293 292 291 290 290 290 289 287 286 285 286 285 285 285 285 285 285 284 282 282 281 280 279 281 282 282 283 283 280 280 282 279 279 278 278 282 279 279 276 276 277 276 277 277
294 294 294 293 293 293 295 298 302 302 301 301 301 301 301 300 301 301 299 301 300 300 301 301 299 300 301 302 301 301 300 299 299 298 297 297 296 295 293 293 293 293 291 291 291 291 290 290 288 287 286 287 286 286 285 285 286 285 284 282 281 282 281 280 281 282 281 281 277 279 280 277 279 281 279 276 277 277 280 277 277 273 272 275 278
293 293 293 292 292 293 294 295 299 301 302 301 301 301 301 299 299 300 298 299 298 299 300 300 300 300 299 299 300 299 299 298 298 298 298 297 294 293 292 292 291 291 290 291 290 290 290 290 289 288 288 288 287 286 286 286 285 284 283 282 282 282 281 279 280 281 281 280 279 281 274 276 276 276 275 276 278 276 273 273 279 277 277 273 274
292 292 292 292 292 293 293 294 297 299 299 299 299 300 300 299 298 297 297 298 298 299 299 299 298 299 300 299 299 299 299 298 298 297 295 294 293 292 291 291 291 290 290 289 289 290 290 290 289 289 289 288 288 288 288 288 286 284 282 282 282 283 281 280 280 281 280 280 278 277 278 278 276 279 279 276 279 281 275 271 273 274 273 275 275
291 291 291 291 292 292 293 293 294 296 297 297 298 299 299 298 296 295 295 296 296 297 297 297 298 298 299 299 299 299 299 299 296 296 296 294 293 293 292 291 291 290 289 289 288 289 289 290 289 288 288 288 288 288 289 289 289 287 284 283 283 283 282 281 280 281 281 281 281 281 280 280 279 280 280 275 273 277 278 277 279 275 273 272 272
290 290 290 291 291 292 292 292 293 294 295 296 296 296 296 296 295 294 294 293 293 293 295 296 297 297 298 298 297 298 299 299 296 297 297 296 294 292 292 291 290 290 290 289 288 288 288 289 289 288 288 287 288 289 290 290 289 289 288 287 287 285 283 282 281 281 281 281 281 281 281 280 280 280 280 279 278 280 280 279 278 276 274 273 271
289 289 290 290 290 291 291 291 291 292 293 294 294 294 295 294 294 293 293 293 292 292 293 294 296 297 297 296 297 297 297 296 297 297 297 297 295 293 292 291 290 290 290 289 289 289 288 288 288 288 288 289 288 288 289 290 290 290 288 288 289 289 288 286 283 281 281 280 279 281 281 281 281 280 280 280 280 279 278 278 278 278 276 271 269
288 288 289 289 290 290 290 290 290 291 292 293 293 293 293 293 293 292 292 293 293 292 292 292 292 294 295 295 295 296 296 296 296 297 297 296 295 293 292 291 290 290 289 289 289 288 288 288 287 287 288 287 287 287 287 287 289 289 288 288 289 289 290 290 289 286 284 283 282 282 282 282 281 281 282 282 282 281 279 278 278 278 276 275 274
287 287 288 289 289 290 290 289 290 291 292 292 293 292 292 292 293 293 292 292 292 292 292 292 292 292 293 293 294 294 294 295 296 296 296 296 296 294 291 290 291 290 289 289 289 288 288 288 287 287 287 287 287 287 287 287 286 286 285 285 285 287 289 290 289 289 286 282 284 283 283 283 283 283 283 284 282 281 280 280 279 277 276 276 273
286 287 288 288 289 289 289 289 289 290 291 291 292 292 292 292 291 292 292 291 291 291 292 291 291 291 292 292 293 292 293 295 296 296 296 296 296 294 291 290 291 290 290 289 289 288 288 288 288 287 286 286 287 287 287 286 286 285 283 283 283 284 284 285 285 283 283 279 279 279 281 281 280 282 283 284 282 280 281 280 281 278 275 274 274
286 287 287 288 288 289 289 289 289 290 291 291 291 291 291 291 291 291 291 291 292 292 292 292 291 290 291 291 292 292 292 294 295 295 295 296 296 292 290 290 290 289 289 289 289 289 288 288 288 287 286 286 287 289 288 286 285 284 283 283 283 283 284 286 287 286 283 280 279 280 281 282 285 283 284 283 281 280 282 279 279 276 276 273 274
286 286 287 288 288 289 289 289 289 289 290 290 290 291 291 291 291 291 290 291 291 291 291 291 291 291 290 290 291 291 291 293 294 294 295 296 294 292 290 290 290 289 288 288 288 288 288 288 288 287 286 286 288 290 291 288 285 284 284 283 283 282 283 283 288 288 288 287 287 287 288 289 289 289 289 288 285 283 280 279 277 277 276 273 271
285 286 287 288 289 289 289 289 289 289 289 290 290 290 291 291 291 291 291 290 290 290 291 291 290 291 290 290 291 291 291 291 293 294 294 295 293 291 290 290 289 289 288 288 288 288 287 287 288 287 286 286 289 291 291 288 285 285 284 283 282 282 282 282 284 285 288 288 288 288 289 290 290 290 290 290 289 286 281 280 279 278 276 275 273
285 286 288 289 289 289 289 288 289 289 289 290 290 290 290 291 291 290 291 291 291 291 291 291 290 290 290 290 290 291 291 290 293 294 294 294 292 291 291 291 289 289 288 287 287 287 287 287 287 287 287 287 290 291 291 288 286 285 285 283 282 282 283 283 284 283 284 285 285 286 287 288 287 287 287 290 289 286 282 278 279 280 278 276 273
285 287 288 288 289 289 289 288 288 288 289 289 290 291 291 291 290 290 290 291 291 291 291 291 290 290 290 289 290 290 290 289 290 293 294 294 293 291 291 291 289 288 288 287 286 286 286 286 287 290 290 290 290 291 291 290 287 286 285 284 283 283 284 283 284 284 283 284 284 284 285 285 285 285 286 287 287 284 281 279 280 280 279 277 276
286 286 287 287 288 288 288 288 288 288 289 289 290 290 291 291 290 289 290 290 291 290 290 290 290 289 289 289 289 289 290 289 289 293 293 294 293 292 291 290 290 289 288 287 287 286 285 286 286 289 290 290 291 291 291 291 289 286 286 285 285 285 285 283 284 285 283 282 282 283 283 283 284 284 285 285 285 284 283 282 279 280 279 277 276
285 285 285 286 287 288 288 288 288 289 289 289 289 290 290 290 290 290 290 290 289 289 289 289 290 289 289 288 289 289 289 289 289 291 293 293 293 292 291 290 290 289 288 287 287 286 286 286 286 288 290 290 290 291 291 291 290 286 286 289 289 288 284 283 283 282 281 281 281 281 281 282 282 281 282 283 283 282 283 282 280 279 279 280 279
282 283 284 286 287 287 288 288 288 288 288 289 289 289 290 289 289 289 289 289 289 289 288 289 289 288 288 288 288 288 288 288 289 290 292 293 293 292 292 291 292 290 289 287 287 287 286 286 286 288 289 290 291 291 291 291 289 286 289 290 289 287 285 282 282 281 280 281 281 281 281 281 281 280 281 281 282 281 281 281 279 278 275 275 277
281 282 284 286 287 287 287 288 288 288 288 289 289 289 289 289 289 289 289 289 289 289 289 288 289 288 287 287 288 288 288 288 289 290 290 292 293 293 293 292 292 289 289 288 287 287 286 286 286 288 289 289 291 291 291 290 287 289 289 289 288 286 282 282 281 281 281 280 280 280 280 281 281 281 281 281 280 278 277 276 274 273 274 272 272
283 284 285 286 287 287 287 288 288 288 288 289 288 289 289 289 289 289 289 289 289 289 289 288 288 288 288 287 287 287 287 287 288 289 290 291 292 293 292 292 292 291 288 288 287 287 287 288 288 289 289 289 290 291 290 289 289 289 289 288 286 283 282 282 282 281 280 280 280 281 280 281 281 282 281 279 276 275 274 273 271 268 269 269 268
284 285 286 286 287 287 287 287 287 288 288 289 289 290 289 289 289 289 289 289 289 289 289 288 288 288 288 288 287 287 286 286 287 288 289 290 291 291 292 291 291 290 289 288 288 288 288 288 288 288 289 289 288 288 287 287 288 288 288 287 284 283 282 282 282 281 280 281 281 281 281 281 280 279 278 277 276 275 274 272 271 268 268 269 269
284 285 286 286 287 287 287 287 288 287 288 288 289 290 290 289 289 289 289 289 289 289 289 288 288 288 288 288 287 286 285 285 286 286 288 289 289 289 290 289 289 289 287 286 287 287 287 287 287 287 288 288 288 288 288 287 287 286 286 285 284 283 283 283 282 282 282 281 281 281 280 278 276 275 276 276 276 275 275 273 273 271 268 267 268
285 285 286 286 287 287 287 287 287 288 288 288 288 289 289 290 289 289 289 289 289 289 289 288 288 288 288 288 286 286 285 285 285 286 287 288 288 289 289 288 288 287 286 285 286 286 286 287 287 286 286 287 287 286 286 286 286 286 285 285 284 283 283 284 284 283 283 283 281 277 273 275 276 276 275 275 276 274 273 273 273 271 269 269 267
286 286 286 287 287 287 287 287 288 288 288 288 289 289 289 289 289 290 290 291 290 290 289 289 289 289 289 288 286 285 285 285 286 288 287 289 288 288 288 288 288 287 287 288 285 285 285 285 284 285 285 285 285 285 285 285 284 285 285 284 284 282 282 282 282 282 281 280 277 276 275 276 276 275 274 274 274 273 271 273 271 273 267 267 272
284 285 286 286 287 287 287 288 288 288 288 288 288 288 289 290 290 290 289 289 290 291 291 290 290 290 289 289 289 287 286 287 289 289 289 290 290 290 290 290 289 288 288 288 286 284 284 283 284 284 284 284 284 284 284 284 283 283 284 285 283 282 282 282 282 282 280 280 279 277 276 276 275 274 274 274 272 270 270 274 270 269 269 268 268
281 283 285 286 286 287 287 287 288 288 288 288 288 288 288 289 290 291 290 289 289 290 291 291 291 291 290 289 289 290 290 289 289 289 289 290 290 290 290 290 289 289 289 286 285 284 283 283 283 283 284 284 284 284 284 284 283 283 283 284 283 282 282 282 282 281 279 279 278 278 276 276 274 273 273 273 272 270 268 269 269 268 269 269 268
279 282 284 285 286 287 287 287 287 287 287 288 288 288 287 287 287 289 290 289 290 290 290 291 291 290 290 290 288 288 289 289 289 289 289 290 290 290 290 290 289 289 289 288 285 284 284 283 283 283 284 283 284 284 284 284 284 284 283 283 282 282 282 281 282 281 280 279 278 276 276 275 275 273 273 273 271 269 268 267 267 267 267 265 267
279 281 283 285 286 287 287 287 287 287 287 287 287 287 287 287 286 286 287 289 289 289 290 290 290 290 290 290 289 289 288 288 289 289 289 289 290 289 290 289 290 289 289 286 285 284 284 284 283 284 284 284 284 284 284 284 284 284 283 283 282 282 282 282 282 280 279 279 278 277 276 275 274 273 272 271 270 269 267 268 267 267 267 266 266
282 283 284 285 286 286 286 287 287 287 287 287 287 287 287 287 287 286 285 284 286 288 289 290 289 289 290 290 289 289 289 288 289 289 289 289 290 290 289 288 290 290 288 285 285 284 284 284 284 284 284 284 284 284 284 284 284 284 283 283 282 282 281 281 280 279 278 278 278 276 274 274 273 272 271 270 270 270 268 268 267 266 266 267 267
285 285 285 285 286 286 286 286 286 287 286 287 287 287 287 287 287 286 285 285 284 284 285 286 288 289 288 288 289 289 288 288 289 289 289 289 290 290 289 286 285 286 286 286 285 284 283 283 283 284 284 284 284 284 284 284 283 283 282 282 281 280 279 278 279 278 277 277 276 275 274 273 273 273 272 270 269 269 268 267 267 268 268 267 266
284 284 284 285 285 285 285 286 286 286 286 286 286 286 286 286 286 286 285 285 285 285 285 285 285 287 288 287 288 288 288 288 289 289 289 290 290 289 285 284 284 284 284 285 285 284 284 284 284 284 284 284 284 284 284 283 283 283 283 281 279 278 277 277 276 276 276 276 275 274 273 273 272 272 272 271 270 270 270 269 268 267 267 267 266
280 282 283 284 284 284 285 285 285 285 285 285 285 285 285 285 285 285 285 284 284 284 283 283 284 285 286 285 287 288 288 288 289 289 289 289 290 288 286 285 285 284 284 284 284 283 283 283 284 284 284 284 283 284 283 283 282 282 281 280 279 278 277 277 276 275 275 274 274 273 272 272 271 271 271 270 270 270 270 269 268 267 266 266 266
277 278 279 280 281 282 283 283 284 284 284 284 284 284 283 283 284 284 283 283 283 283 283 283 284 283 283 283 286 286 287 288 288 288 289 289 287 286 286 286 285 285 284 285 284 284 283 283 283 283 283 284 283 283 282 281 280 280 279 278 277 276 277 275 275 274 273 273 272 272 272 271 271 270 270 271 270 269 268 268 267 267 266 266 266
273 275 276 278 279 278 279 279 280 281 281 282 282 282 282 282 282 282 282 282 282 282 282 282 282 282 282 284 284 286 286 285 285 285 286 286 286 286 285 284 285 285 285 285 284 284 283 283 283 283 282 282 281 281 280 279 278 277 277 275 274 274 275 273 273 272 272 272 271 271 271 271 271 270 271 271 271 270 268 267 267 266 266 265 265
270 271 273 274 275 275 276 276 277 277 278 278 279 280 280 280 281 281 281 281 281 281 281 281 281 281 283 284 284 285 284 284 284 285 285 285 285 285 283 283 284 283 283 283 283 283 282 282 282 281 281 280 280 279 278 277 277 276 275 275 274 273 273 273 272 272 271 271 271 271 271 271 270 270 270 270 270 270 268 267 266 266 266 266 266
268 269 270 271 272 271 272 273 273 274 275 275 276 276 277 277 278 278 278 278 278 278 279 280 281 282 283 284 285 285 284 284 284 285 285 285 285 283 281 282 282 282 281 281 281 280 280 279 279 279 279 278 278 277 276 276 275 274 274 274 273 273 273 272 272 272 271 271 271 270 270 270 269 268 268 268 270 269 267 267 266 266 266 266 265
267 267 267 267 268 268 269 269 269 270 270 271 272 273 273 274 274 275 275 275 275 275 274 275 277 280 283 285 285 285 283 283 283 283 284 284 282 279 279 279 279 280 280 280 279 278 277 277 277 277 276 276 276 276 275 275 275 274 274 273 273 272 272 271 271 271 270 270 270 269 269 269 268 268 268 270 268 267 266 266 266 266 265 265 265
265 265 265 266 265 265 266 266 267 267 267 267 268 269 270 269 269 269 269 270 270 270 270 270 271 272 274 277 277 276 274 274 273 272 272 271 271 271 271 271 272 273 275 277 278 278 278 277 276 276 276 276 276 275 275 275 275 274 274 273 272 272 271 271 270 270 270 269 269 269 268 268 268 268 268 268 267 267 266 266 266 265 265 265 265
263 263 263 264 264 264 264 264 264 264 264 265 265 266 266 266 266 266 266 266 266 266 266 267 267 267 267 269 269 269 267 267 267 267 266 266 266 266 266 267 267 268 269 271 272 274 274 274 272 272 272 272 272 273 273 273 273 273 272 272 271 271 271 270 270 270 269 269 268 268 268 268 268 267 267 267 267 266 266 266 266 266 266 265 265
260 261 261 261 262 262 262 262 262 262 263 262 262 262 263 263 263 263 264 263 264 264 264 264 264 264 264 264 264 264 264 264 265 264 264 264 263 264 264 264 264 265 265 266 268 269 269 269 269 268 268 268 268 269 269 270 270 271 271 271 271 270 270 270 270 270 270 269 268 268 268 267 267 267 267 267 267 267 266 266 266 266 266 266 266
259 259 259 259 260 260 260 260 261 261 260 260 260 260 260 260 261 261 262 262 262 261 261 261 261 261 261 261 262 262 262 262 262 262 262 262 262 262 262 262 263 263 263 263 264 264 265 266 265 265 265 265 265 266 266 267 267 268 268 269 269 269 269 269 269 269 269 269 268 268 268 267 267 267 267 267 267 267 267 267 267 267 266 266 266
257 257 258 258 258 258 259 259 259 259 259 259 259 259 258 259 259 259 260 260 260 260 259 259 259 259 260 260 260 260 260 260 260 260 260 260 260 260 261 261 261 261 261 262 262 262 262 262 263 263 263 263 263 264 264 265 265 266 266 267 267 267 268 268 268 268 268 268 268 268 268 267 267 267 267 267 267 267 267 267 267 266 266 266 266
256 256 256 257 256 256 257 257 257 258 257 257 258 258 258 258 257 258 258 258 258 258 258 258 258 258 258 258 258 258 258 258 259 259 259 259 259 259 259 259 259 259 259 260 260 260 260 260 260 260 260 261 261 262 263 263 264 264 265 266 267 267 267 267 267 267 267 267 268 267 267 267 267 267 267 267 266 266 266 266 266 266 266 266 266
255 255 254 255 255 255 255 255 256 255 256 256 256 256 256 256 256 256 256 256 256 257 257 256 257 257 257 257 257 257 257 257 257 257 257 257 257 257 257 257 257 257 257 257 257 258 258 258 258 258 258 258 259 260 261 262 263 264 265 266 268 269 267 267 267 267 267 266 266 266 266 266 266 266 266 266 266 266 266 266 266 265 265 265 265
254 254 254 254 254 254 254 254 254 254 255 255 255 254 255 255 255 255 255 255 255 255 255 255 255 255 255 255 255 255 255 255 255 255 255 256 256 256 256 256 256 256 255 255 255 256 256 256 256 257 257 257 257 258 259 260 262 263 264 265 267 267 266 266 266 266 266 266 266 266 266 265 265 265 265 266 265 265 265 265 265 265 264 264 264
253 253 252 252 252 253 253 252 252 253 253 253 253 253 253 253 253 253 254 254 253 254 254 254 254 254 254 254 254 254 254 253 253 253 254 254 254 254 255 255 255 255 254 254 254 254 254 255 255 255 255 256 256 256 257 259 262 263 264 264 264 265 265 265 265 265 265 264 263 263 263 264 264 264 264 264 264 264 264 264 264 264 263 263 263
Wind_Speed
20 17 15 14 13 13 14 14 15 13 16 14 16 15 13 13 13 13 13 15 17 17 17 18 16 16 16 15 15 16 14 12 13 13 12 12 11 11 10 12 12 11 11 12 9 10 11 11 10 8 8 9 7 7 6 7 6 6 7 7 6 5 8 6 10 9 2 1 5 6 5 6 3 2 7 6 5 5 6 4 5 7 6 7 5
18 20 18 14 13 13 13 11 12 15 15 15 13 12 13 14 14 12 15 15 15 17 17 16 16 17 16 16 16 16 16 17 15 14 14 13 12 10 11 13 12 10 10 13 12 10 10 11 10 9 9 10 8 8 8 8 7 8 7 8 7 6 5 7 8 13 9 1 4 2 3 0 4 1 7 8 5 5 7 5 5 5 6 4 4
15 15 18 18 14 13 12 11 10 10 15 18 18 15 13 12 13 14 14 14 16 18 18 16 18 17 17 16 15 16 16 16 14 14 15 15 14 12 13 15 14 13 12 14 14 12 11 10 10 9 8 8 8 8 8 9 8 9 9 7 9 7 5 7 11 7 12 7 5 6 4 2 3 3 3 5 4 5 7 4 5 3 2 3 6
14 14 15 18 20 15 13 12 11 11 11 11 17 17 15 13 12 13 13 11 14 14 17 20 17 18 18 17 16 16 16 15 15 15 16 16 16 16 14 14 15 15 15 14 13 13 15 11 10 11 10 11 9 8 8 8 9 8 8 6 7 8 5 8 6 11 7 11 6 7 4 5 3 4 3 4 5 5 5 4 2 4 4 6 5
13 13 13 17 18 19 15 13 12 12 12 10 10 14 14 13 13 14 12 13 13 13 13 13 19 19 18 18 17 17 16 16 16 16 15 14 15 15 15 14 14 14 14 14 14 15 14 15 13 11 11 11 9 9 10 11 9 9 9 7 7 6 5 7 6 6 11 12 7 2 3 3 2 3 4 6 3 4 3 4 4 4 5 3 4
12 13 13 14 17 19 18 13 13 14 13 11 11 9 12 13 13 12 14 15 15 14 14 13 13 19 20 17 17 17 16 16 17 16 17 16 14 14 14 15 15 14 13 12 13 13 14 14 14 13 12 13 12 11 11 12 10 9 9 8 7 6 7 6 7 7 6 10 11 7 2 7 4 2 2 2 7 5 5 3 5 5 3 3 3
13 13 13 14 15 16 17 16 13 12 12 12 11 10 10 11 13 14 11 12 15 17 18 17 14 13 17 19 19 19 18 18 18 16 14 15 15 15 13 13 13 13 13 14 13 13 13 13 14 14 14 13 13 12 12 12 12 12 11 11 9 9 9 7 8 9 8 8 4 4 7 3 4 5 0 0 2 4 7 4 2 2 3 2 1
13 13 13 14 14 15 15 15 15 15 12 12 13 12 12 11 12 12 13 13 12 15 17 19 18 16 13 14 16 15 16 16 15 17 17 16 14 13 13 13 12 11 11 14 14 13 13 13 14 15 15 13 13 12 13 13 10 10 9 10 11 12 11 9 9 10 9 6 5 8 3 4 2 3 1 2 4 2 1 4 8 3 1 1 1
12 13 14 14 15 15 14 15 14 14 12 12 13 13 13 13 13 12 12 15 15 14 13 15 15 17 18 16 15 15 15 16 15 15 14 15 14 15 15 14 14 13 11 10 12 13 12 13 13 14 15 16 18 16 15 13 13 13 11 11 12 12 11 10 10 11 9 9 7 5 6 5 4 7 7 6 8 9 4 3 3 1 1 1 0
11 13 14 14 15 14 15 14 15 13 13 13 13 14 14 12 12 13 14 13 13 15 14 13 15 17 18 19 18 16 16 14 17 23 20 16 15 14 14 14 14 13 13 12 10 11 13 13 13 19 18 18 18 20 20 18 16 13 13 14 14 13 13 12 11 12 12 12 12 12 9 9 10 10 9 4 3 6 7 6 7 4 2 1 2
11 12 14 14 14 15 14 14 14 15 13 12 12 13 14 13 12 13 13 12 12 11 15 17 16 14 17 18 18 17 15 14 24 24 25 24 18 16 16 14 13 14 14 15 14 13 10 11 11 15 16 16 16 20 20 20 19 16 13 16 15 18 16 14 13 13 13 13 11 11 12 13 10 9 9 8 6 9 9 8 7 7 6 7 5
12 14 14 14 15 15 13 14 14 14 13 12 12 12 13 13 13 13 13 13 12 10 11 13 16 17 14 15 17 17 16 19 27 28 27 27 22 16 15 15 14 13 13 14 14 14 13 11 9 10 12 15 14 15 18 20 19 17 18 16 14 13 17 20 18 11 11 13 11 13 13 14 14 11 10 10 10 8 8 8 8 9 8 6 5
14 15 15 14 15 14 13 13 14 14 13 12 11 11 12 13 15 14 14 14 13 13 13 12 11 11 15 16 14 15 14 20 26 28 28 28 26 20 14 14 15 15 14 14 13 14 13 13 11 10 11 18 15 13 13 13 16 18 18 17 15 17 13 11 12 16 19 15 17 15 16 14 14 14 15 15 12 13 10 9 8 7 5 7 6
15 17 16 14 14 14 13 12 13 13 12 12 12 11 12 14 14 13 13 12 14 15 14 15 13 12 12 13 14 13 13 19 25 27 28 30 29 23 15 17 15 16 17 16 14 14 15 15 14 12 10 13 12 14 13 13 13 12 12 11 10 12 13 12 13 6 5 8 14 18 13 10 16 15 12 12 16 15 14 12 9 8 7 5 2
19 17 15 14 13 13 12 11 12 12 12 12 12 13 14 13 13 12 12 14 14 15 15 14 13 13 12 10 10 11 12 20 25 26 25 26 28 23 14 15 15 15 15 15 16 16 15 15 15 15 13 13 12 15 15 15 14 13 12 12 10 9 9 10 8 6 7 3 2 0 5 5 3 5 7 7 6 4 5 8 10 7 7 5 5
18 13 13 14 13 13 11 11 12 11 11 11 13 14 14 14 14 12 12 11 12 12 13 14 15 14 14 14 14 14 13 20 23 24 26 26 27 16 13 14 14 14 15 15 15 15 15 16 15 15 16 15 17 21 17 15 16 18 16 13 10 8 9 7 6 6 6 5 4 5 7 6 8 11 11 10 8 7 7 8 8 7 9 7 6
13 14 15 14 13 12 11 10 11 11 10 11 13 14 15 14 13 11 12 12 13 13 14 14 13 13 13 12 13 13 11 19 24 25 26 28 23 15 15 13 14 15 15 15 14 15 15 16 16 15 15 16 18 19 17 19 18 21 17 15 12 10 9 5 10 12 10 9 10 12 13 15 17 19 18 16 11 10 9 9 8 8 9 7 4
14 15 15 12 12 12 11 9 11 11 10 12 14 13 13 12 13 12 14 14 14 14 12 12 13 15 17 18 17 15 14 19 26 26 28 29 24 18 15 15 15 15 14 14 13 13 15 22 19 17 17 16 19 21 19 19 17 19 17 15 13 13 10 7 7 8 13 13 14 15 17 17 18 20 21 20 18 13 12 13 11 9 8 7 7
14 15 13 12 12 11 11 9 9 10 11 12 12 13 13 13 12 12 13 13 15 13 13 14 14 13 16 18 21 20 15 18 26 27 28 29 23 15 15 13 14 14 13 13 11 12 13 17 22 19 17 16 23 21 22 22 17 17 17 15 15 15 14 14 13 12 11 10 10 12 11 14 13 11 13 20 18 12 7 5 9 11 10 8 7
15 13 11 12 12 11 10 10 9 10 11 11 11 12 11 10 11 13 12 12 13 13 14 14 15 14 14 15 16 19 17 15 20 26 26 27 27 17 14 15 16 16 14 14 13 11 13 13 17 17 18 22 24 24 22 20 19 17 15 15 15 18 11 13 11 11 11 11 10 9 10 9 9 9 10 11 11 8 7 6 7 7 8 9 8
15 11 12 13 12 12 10 9 10 10 11 11 10 10 9 11 12 13 12 11 11 13 15 14 15 15 14 15 15 15 15 16 19 26 27 28 29 23 15 17 16 15 15 15 15 15 13 13 12 19 22 23 24 24 23 19 16 16 16 16 15 8 13 12 12 14 11 10 9 9 8 8 8 7 8 8 8 8 7 7 6 5 6 8 8
10 11 13 14 13 12 11 10 9 10 10 11 10 11 10 11 12 13 12 12 14 14 14 13 13 13 12 14 14 16 14 19 16 25 28 29 28 29 17 16 17 16 15 14 13 13 14 13 13 20 26 24 26 24 22 20 14 13 13 10 16 19 14 10 10 9 9 9 8 8 8 8 8 8 7 7 7 6 7 7 6 6 5 5 7
14 14 15 15 14 13 11 10 10 8 9 11 12 12 10 10 12 12 14 13 14 15 14 13 13 12 12 11 12 13 13 14 21 20 27 28 29 27 24 17 22 17 16 16 15 14 13 14 15 23 25 26 23 22 24 21 20 12 16 18 17 19 15 10 10 10 9 9 9 9 9 9 9 9 8 8 7 6 6 6 5 5 3 2 2
14 14 14 14 14 12 11 10 9 8 10 10 12 12 12 12 11 11 12 13 12 13 12 12 12 12 13 12 11 11 11 11 17 22 22 29 27 28 25 22 22 15 14 14 13 12 12 12 14 23 24 26 24 22 22 26 16 19 20 19 19 17 12 12 10 10 10 9 10 10 10 9 8 9 9 7 6 6 5 5 5 4 5 4 3
12 13 13 13 12 11 10 9 9 9 9 10 11 12 13 12 12 12 13 13 13 13 13 12 13 12 12 12 11 11 11 11 12 18 24 26 27 28 26 23 22 19 13 9 12 12 13 13 16 24 24 24 24 25 22 22 19 22 22 23 21 12 12 12 12 11 11 12 12 10 9 10 10 8 7 7 7 7 6 4 4 4 4 5 3
12 13 13 12 12 11 10 10 9 10 11 10 12 12 12 12 12 12 12 13 13 13 13 12 13 12 12 12 12 12 11 11 12 13 17 21 22 27 26 23 21 20 15 11 15 17 19 16 22 23 22 20 17 15 14 16 22 24 24 22 13 12 12 12 12 13 13 12 11 12 11 9 9 8 8 9 9 8 8 7 7 4 5 5 3
13 13 13 13 12 10 10 9 8 9 10 10 11 11 11 12 12 12 13 13 13 13 13 13 13 13 13 12 11 11 11 11 12 12 13 14 14 16 18 15 17 16 10 9 12 11 14 16 14 16 13 19 18 17 17 20 18 16 14 13 12 13 13 14 15 15 14 13 12 11 9 8 7 9 9 10 9 8 8 9 8 7 7 5 6
12 12 13 12 10 9 9 12 12 9 10 11 11 11 12 13 14 14 14 14 14 14 13 14 15 14 13 11 11 11 12 12 13 14 15 15 14 14 14 14 14 14 12 11 12 12 13 13 16 13 11 11 10 8 8 10 12 14 13 13 12 12 13 16 13 11 11 10 7 7 7 8 10 9 8 8 8 8 7 8 9 8 7 7 5
13 13 12 11 11 10 10 9 10 10 10 11 12 12 13 13 13 11 10 10 12 13 12 12 12 11 12 13 14 15 14 15 17 14 16 18 18 16 15 15 13 12 14 15 13 12 12 12 12 12 12 13 12 11 11 12 11 12 13 11 10 10 11 11 13 13 11 11 12 12 11 10 9 8 9 8 8 8 7 7 6 9 6 6 9
13 13 12 11 11 10 9 9 10 10 10 10 11 11 13 15 13 12 11 13 17 17 15 13 12 10 11 12 14 17 18 14 14 19 22 25 25 26 23 22 21 18 18 19 16 14 14 14 13 14 14 13 14 14 13 13 12 12 11 11 12 11 12 11 10 10 9 10 10 11 11 10 9 9 9 10 7 7 8 9 8 7 9 8 8
12 12 11 10 10 9 8 9 9 9 10 10 10 10 9 11 17 18 15 15 16 17 17 16 18 21 17 13 12 13 10 17 26 29 26 25 24 22 19 17 17 16 19 17 14 13 13 13 13 13 13 13 13 13 13 13 13 13 13 13 12 13 12 11 11 10 10 10 10 9 9 10 10 10 10 10 10 8 7 5 7 8 9 9 9
12 11 9 9 8 8 8 9 9 9 9 9 10 9 10 9 8 12 15 16 19 21 19 18 16 16 15 10 10 9 12 17 19 20 21 24 24 24 24 24 23 22 22 20 14 13 14 14 14 14 14 14 14 13 14 15 15 15 14 13 13 13 14 14 13 12 12 11 10 10 10 10 10 10 9 9 9 9 9 8 8 9 7 7 8
13 11 10 8 8 8 8 8 8 9 9 10 9 9 9 9 10 8 6 8 13 14 15 15 15 16 17 15 14 13 10 15 22 24 24 23 22 21 22 22 20 23 27 17 14 14 13 14 15 14 15 16 15 15 15 14 14 13 13 14 14 13 13 12 13 12 12 12 11 11 10 10 9 9 8 9 10 10 10 10 9 8 8 8 8
10 9 7 6 6 5 6 6 7 7 8 8 9 9 8 8 9 9 9 6 5 9 12 14 14 14 16 17 14 15 14 19 22 24 25 26 25 24 21 15 19 23 14 17 15 15 15 13 12 14 14 13 13 13 13 13 13 13 13 12 10 9 10 11 12 12 10 10 11 9 10 9 9 10 9 8 8 9 10 9 9 9 9 10 11
6 5 7 4 2 3 3 4 4 6 5 5 5 6 7 6 7 9 9 9 9 8 6 6 7 10 9 11 12 14 15 18 20 21 21 23 26 25 21 15 14 15 12 9 7 7 9 11 12 12 13 14 14 14 15 14 13 13 13 12 11 11 10 11 11 10 10 9 9 10 10 10 10 9 10 10 9 9 10 10 10 11 11 10 9
11 8 7 6 4 3 3 3 4 5 5 5 5 5 4 6 7 6 6 6 6 7 6 6 6 6 11 10 13 14 17 21 21 22 23 24 25 24 18 17 16 16 16 13 11 10 10 9 10 10 10 10 11 12 12 13 13 12 11 12 12 12 11 11 10 10 10 10 10 10 9 9 9 9 7 8 11 12 10 10 10 9 9 8 7
13 11 9 7 7 6 7 7 6 6 6 6 6 6 5 5 5 5 5 5 6 5 6 6 6 6 6 5 11 13 16 18 20 22 24 24 27 20 15 15 15 15 15 14 12 10 10 9 9 9 10 10 10 10 10 10 10 10 10 11 11 12 12 11 11 10 11 10 8 9 9 9 8 9 9 10 8 8 8 9 9 9 9 8 7
14 14 12 12 9 9 9 8 8 10 8 7 7 7 7 6 6 6 6 7 7 7 7 6 6 6 7 5 8 8 12 17 20 18 18 19 17 13 10 9 10 12 13 10 9 10 10 9 9 10 10 9 10 10 10 9 9 10 10 10 9 9 10 10 10 10 9 8 9 8 8 8 8 8 8 9 9 9 9 9 9 9 8 8 8
13 22 28 23 15 11 10 10 10 9 9 8 7 8 8 8 8 8 7 7 7 7 7 7 6 7 6 7 7 10 14 11 11 11 10 10 9 8 5 4 5 6 7 10 10 10 9 9 8 8 9 9 8 8 9 9 9 9 9 9 9 8 9 8 8 8 8 8 7 7 8 7 8 8 9 9 9 10 10 9 9 9 9 9 9
14 13 18 28 15 15 12 12 12 12 11 10 10 9 9 8 8 8 8 8 8 7 7 7 7 7 6 8 9 9 9 9 9 9 10 10 10 7 5 5 5 5 5 4 4 4 4 5 6 8 8 8 9 9 8 9 8 8 9 9 10 10 9 9 9 9 9 8 8 8 8 8 8 8 8 8 9 8 9 10 9 9 9 8 7
13 14 15 18 20 14 15 14 13 12 11 12 11 12 11 11 10 10 10 10 9 9 8 7 7 6 5 8 10 9 8 8 7 7 7 7 7 5 5 5 5 6 5 6 6 6 6 6 5 6 6 7 8 8 8 8 8 8 8 7 7 8 8 8 8 7 7 8 8 8 7 8 8 9 10 9 7 7 7 7 7 7 7 6 7
15 15 15 14 16 15 14 14 13 15 13 13 13 11 11 11 12 12 11 10 9 8 7 8 8 8 12 19 16 15 9 6 7 6 7 7 7 7 7 7 6 6 6 7 7 8 8 8 7 6 7 7 8 8 8 8 8 9 9 9 9 8 8 8 8 8 9 8 8 8 8 8 8 8 8 7 8 7 7 7 7 7 7 7 7
15 15 14 15 15 14 13 12 14 15 14 14 13 13 14 14 12 12 11 11 10 10 9 9 8 10 12 21 21 21 13 12 10 10 10 9 9 9 8 7 6 6 7 6 6 7 9 8 7 6 6 6 5 7 8 8 9 8 8 8 8 8 8 8 7 8 7 7 8 8 9 8 8 7 7 7 7 7 7 7 7 7 7 7 7
15 15 15 16 15 15 15 14 14 15 13 17 17 16 14 13 13 13 12 12 12 12 11 11 10 11 11 14 19 18 13 11 12 11 10 10 9 9 8 7 7 8 9 9 8 8 8 8 8 7 7 7 6 6 5 5 4 5 6 7 7 7 7 7 8 8 8 8 8 8 8 7 7 7 7 7 7 8 7 7 8 8 8 7 8
14 15 15 14 15 14 15 14 14 14 17 16 14 14 16 14 13 13 13 12 13 13 12 12 12 12 13 12 12 12 10 10 12 12 11 10 10 10 9 9 9 9 9 8 9 11 10 10 10 11 9 7 7 7 7 7 7 6 4 4 5 5 5 5 5 5 6 7 7 7 7 7 7 7 7 7 7 8 7 8 8 7 8 8 8
13 13 15 14 15 15 14 14 16 14 14 13 13 13 13 13 12 13 13 13 13 13 12 13 12 13 13 12 11 13 11 11 11 11 12 11 11 10 9 9 9 10 9 9 9 12 11 13 11 8 9 8 8 8 8 8 7 7 7 7 6 6 5 5 5 6 5 6 6 6 6 6 6 6 6 6 6 6 7 7 7 7 7 8 8
14 13 14 14 13 13 14 14 14 14 14 14 14 14 13 12 12 13 14 16 14 14 13 12 13 12 12 12 12 11 12 12 11 11 12 11 11 10 10 10 10 11 10 10 11 10 11 10 9 9 9 8 8 9 8 9 9 9 9 8 7 8 7 5 5 5 5 5 5 5 5 5 5 5 6 6 5 6 6 7 7 8 8 8 8
13 13 13 14 13 13 13 13 14 16 13 13 13 13 13 13 12 12 12 12 13 12 12 12 12 11 13 12 12 12 12 11 11 11 10 10 10 9 10 11 11 9 10 10 10 10 10 10 9 9 9 9 9 8 7 7 7 8 8 8 8 8 9 9 6 6 5 5 4 4 4 4 4 4 5 6 6 6 6 6 6 6 7 6 6
13 13 12 13 13 14 13 13 13 12 11 11 12 13 12 12 12 11 11 12 12 11 11 11 10 10 11 11 11 11 11 12 11 10 10 11 11 10 10 11 11 11 10 10 10 10 10 9 10 9 9 7 7 7 7 7 7 8 9 8 11 15 13 11 6 5 5 5 4 4 3 3 3 3 3 4 5 5 5 6 6 6 6 6 6
12 13 13 12 13 12 12 11 11 11 12 11 11 12 11 11 12 12 11 11 11 12 11 11 11 11 10 11 12 11 11 11 11 11 10 9 9 9 10 10 10 10 9 9 8 8 8 8 9 9 9 8 8 8 10 10 8 8 8 10 16 16 15 15 15 13 7 4 3 1 2 3 2 3 3 4 4 5 5 5 5 5 6 6 6
12 12 11 12 11 11 11 11 11 11 11 12 11 11 11 11 10 10 10 11 11 11 10 10 10 10 11 10 11 10 11 10 9 9 9 9 9 9 9 10 10 9 9 9 8 8 8 8 7 7 8 7 8 7 8 8 7 8 11 15 14 13 13 11 7 10 12 8 6 6 5 2 1 2 3 4 4 5 5 5 5 5 5 5 5
Wind_Direction
330 315 288 270 257 252 251 240 228 213 201 195 198 197 187 181 186 183 178 180 174 177 183 180 181 183 181 183 182 181 180 182 179 172 176 177 178 177 169 175 182 184 170 171 169 168 172 174 178 173 163 166 174 168 166 158 154 147 141 142 141 157 142 131 134 120 39 39 123 153 176 145 80 98 116 116 96 86 81 80 84 85 79 80 77
330 326 312 282 266 256 251 252 238 210 206 199 194 194 186 184 183 180 181 185 177 178 181 180 181 182 186 188 183 182 180 179 181 174 176 177 178 176 171 175 181 178 172 174 172 173 172 172 173 166 173 172 164 170 166 157 162 151 159 155 158 163 162 119 144 143 146 157 102 109 156 288 102 314 138 125 113 94 84 72 58 76 93 111 90
324 324 324 313 284 266 258 248 240 239 207 196 196 185 185 185 179 181 188 181 182 179 179 183 181 183 186 186 190 183 182 181 178 176 177 177 177 180 180 177 178 177 180 182 175 167 166 173 173 165 165 165 173 169 160 163 163 164 162 160 156 158 157 139 140 136 143 154 159 155 164 96 120 174 111 102 110 108 107 102 109 103 97 100 71
321 322 325 323 315 288 262 244 235 224 224 213 193 191 182 179 179 187 181 178 180 182 181 177 183 183 186 188 187 187 184 183 178 182 175 178 179 181 180 182 179 180 183 177 173 170 170 167 172 168 167 166 166 161 165 158 161 159 156 161 153 150 152 142 149 141 150 138 184 160 171 118 80 96 97 80 107 103 121 139 119 87 69 57 66
316 318 321 323 322 316 277 245 228 224 220 219 209 184 181 179 178 183 181 179 182 176 177 188 180 182 187 186 189 190 183 179 180 182 180 179 182 180 178 179 180 179 182 179 174 174 170 173 168 168 168 165 164 165 163 166 167 155 157 156 156 144 132 140 128 137 146 148 140 136 136 77 99 114 142 129 102 88 62 88 85 80 69 60 70
309 312 318 320 321 321 310 266 232 222 217 210 208 199 176 175 179 181 181 185 178 178 179 177 192 185 183 186 186 188 184 183 180 185 181 176 182 183 179 179 180 178 178 179 179 176 175 169 165 168 171 171 175 170 167 164 151 152 154 154 150 139 126 121 121 133 137 145 147 130 140 134 116 122 234 175 137 111 84 61 49 28 46 35 6
308 311 314 314 314 314 314 298 261 232 215 205 200 190 187 180 177 178 181 184 182 182 182 182 184 193 188 180 186 188 185 184 183 181 182 176 177 179 180 183 182 178 179 179 181 180 176 169 166 171 177 178 168 169 167 167 165 164 161 155 151 142 129 129 132 134 140 132 85 98 119 54 118 146 120 120 103 137 137 103 72 333 29 93 27
305 308 311 310 307 308 307 306 278 244 222 208 197 192 185 179 180 181 175 179 188 189 187 186 182 180 188 188 185 184 182 182 184 181 178 178 176 179 178 178 179 181 180 179 178 177 175 174 172 176 180 178 172 167 166 169 158 158 167 155 157 146 139 135 133 138 141 142 138 147 121 131 84 67 92 124 90 58 86 134 159 176 159 340 187
301 306 309 306 303 301 303 303 295 259 228 209 202 194 187 182 179 176 181 187 186 191 193 186 182 183 180 184 185 181 185 187 182 179 176 176 175 177 178 179 176 175 174 179 179 173 173 174 178 179 182 178 172 165 172 167 165 168 169 166 161 151 142 141 146 146 144 141 125 112 123 127 164 149 163 181 185 169 173 103 132 170 150 72 313
297 303 303 302 297 295 298 299 297 274 237 211 203 197 190 185 176 177 183 189 190 184 184 192 188 190 187 184 182 184 187 188 181 179 177 175 175 178 178 179 177 173 170 172 179 177 176 177 182 180 180 176 171 172 172 172 174 174 171 168 163 153 153 149 154 158 155 159 163 159 158 176 177 182 173 195 144 115 127 135 143 187 98 42 322
293 297 297 297 294 293 294 297 297 280 240 216 199 195 192 185 180 179 179 179 183 186 185 185 192 197 194 187 185 185 187 186 179 179 181 178 176 176 175 176 177 175 175 174 174 177 182 181 175 178 177 175 175 176 177 175 179 174 177 186 175 161 155 158 163 160 167 167 164 167 175 172 183 178 177 162 163 163 162 162 152 148 164 146 164
290 292 290 292 290 288 289 294 294 278 245 217 200 194 187 184 184 182 177 176 176 174 186 194 191 187 193 194 189 187 187 185 179 180 181 180 178 176 176 173 173 177 179 180 178 174 172 172 175 173 179 181 176 177 179 178 176 173 175 184 185 180 174 166 160 166 168 158 166 186 171 182 176 173 173 163 169 156 157 163 171 166 165 169 170
291 289 288 287 284 282 283 290 291 275 244 217 201 188 184 183 185 183 185 182 171 175 187 185 193 194 187 190 197 190 187 181 182 182 180 178 178 174 176 174 172 176 177 181 178 175 170 167 165 177 187 180 172 172 172 176 177 171 172 181 183 180 184 200 194 176 168 163 177 180 187 174 170 191 182 173 159 160 158 171 183 179 175 156 173
289 285 283 279 277 276 279 287 290 273 240 219 197 185 183 187 186 183 180 177 179 180 180 187 189 189 194 193 190 189 190 183 182 184 183 179 178 177 176 172 177 178 178 178 177 175 173 168 167 176 180 178 178 173 172 170 169 165 169 179 183 184 187 193 196 224 229 193 176 183 192 174 184 183 179 158 160 170 170 181 170 164 164 173 166
282 275 275 275 272 271 276 286 290 273 237 214 197 188 187 188 184 179 173 177 181 183 182 186 189 190 189 189 190 190 194 188 184 183 183 181 177 175 176 177 175 178 180 178 175 175 175 173 170 173 174 178 181 177 171 171 166 165 166 174 176 180 179 189 192 189 180 182 204 33 152 149 85 121 148 160 152 135 152 162 161 148 120 108 55
269 269 274 273 267 267 273 286 289 273 233 211 197 191 188 186 184 180 176 178 180 179 183 183 187 191 191 187 189 193 193 190 187 185 182 181 176 175 174 176 176 175 177 179 177 176 173 171 170 172 174 178 183 177 172 165 165 164 171 174 175 176 191 189 166 158 164 151 146 150 155 154 140 146 153 149 133 121 109 94 94 108 120 127 158
267 278 273 265 263 264 268 279 287 273 234 210 200 193 188 188 184 174 175 178 178 184 185 185 186 185 186 192 193 194 190 190 188 186 184 181 176 178 174 176 176 175 178 178 178 176 176 173 170 172 175 181 178 174 166 162 169 172 173 176 176 173 182 170 160 157 155 152 150 145 148 151 150 152 153 151 147 141 129 124 156 148 146 151 168
280 275 264 256 256 262 260 266 277 271 238 214 202 196 190 184 181 177 179 178 183 185 180 184 185 187 188 190 193 192 193 192 190 188 185 182 178 177 176 176 178 178 177 178 176 176 178 173 172 171 174 179 175 173 166 163 171 176 176 170 170 181 182 164 151 156 155 152 154 154 153 153 154 157 161 160 156 154 156 171 173 151 165 164 168
275 264 256 254 256 255 253 253 259 263 244 223 207 195 189 186 183 180 184 181 183 180 181 184 188 191 194 193 191 192 192 193 193 191 187 184 180 176 175 177 176 179 173 175 177 174 175 178 175 173 174 169 170 171 167 172 174 177 177 171 179 188 189 170 162 154 158 151 152 149 152 155 155 157 166 166 166 168 174 147 151 161 162 169 137
268 255 256 261 259 249 243 241 243 248 246 228 216 201 190 184 180 182 187 185 183 183 186 187 188 194 194 195 194 195 191 189 193 192 188 185 180 177 178 177 181 177 175 171 171 178 174 174 181 171 164 164 169 170 172 174 178 179 173 180 181 198 171 162 163 156 152 148 145 147 147 148 150 153 163 167 169 173 172 158 178 168 157 156 165
253 257 264 264 258 247 237 229 231 235 235 228 217 207 194 187 183 185 185 188 185 187 188 190 191 192 189 193 194 196 193 185 189 189 188 186 183 179 182 185 179 175 176 175 176 172 176 179 178 177 167 166 168 172 173 176 171 173 176 186 194 149 125 147 152 147 142 138 141 145 147 149 153 157 166 170 173 170 174 174 177 183 157 154 157
259 268 267 264 257 247 237 228 222 225 226 222 217 211 202 190 184 184 185 185 187 189 189 190 192 192 190 190 192 193 190 185 183 190 188 188 186 184 182 186 178 172 173 179 178 177 176 177 179 180 174 168 172 169 168 169 155 166 178 137 119 130 139 137 135 136 138 139 146 152 154 160 162 166 172 173 179 173 171 179 178 184 182 163 168
272 270 267 262 254 245 237 227 223 219 218 216 213 212 200 193 190 185 185 186 188 188 189 192 190 191 188 191 192 189 184 186 185 187 189 188 187 187 186 181 180 175 175 177 182 180 176 178 179 176 175 172 168 164 167 165 168 167 146 138 135 127 127 139 140 141 144 152 157 167 170 170 171 174 178 185 181 167 172 169 167 163 159 144 162
257 257 257 255 250 244 235 228 223 218 216 210 210 208 200 195 188 187 187 186 187 190 193 190 191 190 190 188 188 186 183 180 187 188 188 188 187 187 187 185 181 183 178 177 176 173 173 177 171 174 175 176 171 163 164 172 167 156 147 137 136 134 134 142 149 155 155 159 172 177 182 179 171 178 184 178 162 149 138 129 134 138 146 140 131
252 251 252 250 246 243 234 228 219 215 216 208 208 206 201 191 191 191 186 189 190 191 190 189 192 193 189 187 185 183 178 179 181 189 189 188 187 188 189 185 184 175 176 175 169 174 173 155 158 171 174 173 172 172 171 169 152 154 150 149 147 148 150 157 159 157 166 179 184 183 183 186 183 171 149 133 119 110 114 94 83 81 87 91 85
256 252 252 250 247 239 232 229 220 216 213 208 208 204 198 194 195 188 190 192 191 190 188 188 193 190 191 187 183 181 178 175 181 183 189 189 188 189 187 184 180 180 176 167 174 165 162 148 164 170 170 169 166 169 170 170 166 165 162 156 157 157 159 156 161 169 182 180 182 186 186 176 170 152 136 134 143 161 154 147 136 130 126 129 143
256 255 251 250 245 234 225 225 221 217 214 210 207 205 199 193 195 193 193 192 192 191 188 186 189 191 191 186 182 177 178 181 179 179 183 184 187 187 183 181 174 170 163 149 151 155 155 158 164 168 167 170 171 170 169 168 166 165 163 164 165 167 169 171 170 176 180 182 185 187 176 160 129 130 151 155 165 169 164 157 160 167 155 158 172
258 255 251 247 244 235 227 222 220 217 212 207 206 205 200 195 195 198 194 192 189 192 189 189 190 189 188 179 175 178 182 185 185 181 181 179 179 178 181 176 175 178 167 158 156 147 147 152 155 158 157 160 162 156 162 169 171 170 172 174 174 172 171 168 166 175 180 175 159 127 118 146 162 160 148 159 167 162 162 162 168 167 163 146 164
268 262 257 251 246 240 236 228 218 216 211 208 209 205 198 194 198 199 199 191 193 192 192 194 191 188 184 179 179 187 189 192 197 182 176 178 176 176 180 183 178 175 170 148 138 138 140 150 157 159 164 164 165 170 171 172 177 179 174 172 167 165 167 170 175 178 170 159 163 164 163 160 159 159 155 158 170 163 164 161 163 162 157 168 203
281 270 260 253 248 241 236 228 218 214 209 204 204 210 211 199 191 193 194 196 197 194 187 193 187 183 190 198 190 188 194 192 153 168 182 184 185 183 184 178 175 169 153 144 143 146 156 158 165 166 167 170 173 174 174 175 172 173 180 174 170 172 175 176 173 169 164 168 163 162 166 158 156 161 167 169 153 154 166 172 167 157 162 187 202
280 270 260 251 244 238 229 223 214 211 208 201 197 198 195 204 197 192 186 185 195 204 203 198 185 189 191 193 198 200 164 156 173 184 181 181 180 177 172 170 165 149 135 135 147 158 159 163 168 173 173 172 173 174 170 172 177 177 180 180 179 174 171 172 172 165 166 167 167 166 160 164 163 164 169 170 164 160 155 164 147 167 184 182 196
274 267 262 254 246 234 227 219 207 203 202 195 192 188 189 183 195 205 199 192 194 196 197 197 195 195 196 190 171 191 177 171 171 171 175 176 174 173 172 168 162 151 157 154 153 167 171 169 169 174 173 174 179 174 175 179 179 180 177 177 181 179 176 180 172 166 170 167 166 167 168 169 165 168 169 164 157 157 164 166 175 179 187 179 203
260 263 264 261 254 237 222 210 199 195 190 188 184 185 184 181 179 178 188 179 188 197 201 196 188 184 189 189 181 185 176 164 168 170 171 174 172 172 169 163 151 154 155 164 175 173 175 176 175 176 176 180 177 177 180 179 177 177 179 182 180 182 180 172 162 166 174 175 168 172 171 168 164 162 162 157 158 165 171 181 182 181 179 188 205
252 255 263 264 248 223 206 193 185 183 184 180 179 178 181 177 171 169 165 147 158 188 194 192 186 182 186 187 177 174 165 168 173 174 171 168 166 164 159 152 152 160 172 180 179 181 180 179 178 177 179 178 175 175 176 177 177 176 177 180 175 168 166 160 166 173 172 170 173 170 164 166 162 160 164 164 173 167 173 184 173 178 192 199 204
312 293 282 272 207 180 166 160 147 152 148 154 160 162 163 156 158 166 173 172 168 164 166 178 184 172 175 182 173 169 162 165 170 170 170 166 161 153 134 138 154 178 199 193 189 176 176 177 177 179 179 179 178 176 177 178 175 176 175 169 163 163 162 167 173 168 168 170 169 172 171 165 169 170 166 169 170 179 186 182 189 192 195 197 197
358 11 20 25 33 46 78 89 120 123 122 126 120 130 126 144 150 155 151 157 158 153 150 159 151 159 153 162 170 167 161 163 166 165 166 164 160 147 157 172 171 180 187 189 184 179 178 180 176 175 176 179 175 178 177 174 175 172 168 163 162 162 165 167 166 169 173 174 178 165 159 166 166 167 164 171 182 187 186 189 190 193 195 194 190
6 7 14 17 27 40 48 59 65 73 82 87 102 97 98 96 103 106 112 108 104 91 107 105 108 115 119 128 151 149 148 156 159 162 164 166 165 166 173 172 179 178 184 184 180 168 171 176 172 171 175 175 174 173 168 170 166 163 160 161 159 160 170 172 169 169 170 175 168 165 166 164 161 166 169 179 187 190 190 187 187 188 193 185 169
11 18 18 20 25 29 40 47 51 66 70 81 84 88 87 89 93 105 107 105 99 109 106 101 113 125 122 107 122 126 139 141 144 152 161 163 167 178 177 177 177 178 184 185 176 171 172 167 168 173 174 170 167 165 163 159 156 155 154 154 157 160 149 155 164 168 169 164 164 162 158 157 162 166 171 182 187 186 189 187 185 189 188 180 186
357 11 18 21 26 29 36 41 42 45 52 55 61 73 81 85 85 86 84 86 88 93 93 96 99 102 109 118 113 125 125 141 154 163 162 169 165 166 123 148 190 207 192 181 177 176 175 172 169 159 160 158 153 151 150 148 146 148 148 146 146 147 151 155 159 165 165 165 155 155 158 164 169 176 182 189 196 191 189 186 189 186 186 191 199
3 360 12 20 19 23 32 39 40 44 42 50 47 55 59 62 72 75 79 79 80 76 79 90 91 98 109 118 125 128 127 137 146 151 160 162 167 155 76 106 130 151 153 147 142 148 143 145 147 149 149 145 145 142 138 141 145 145 146 152 154 160 164 164 168 168 172 164 160 164 168 174 174 173 184 198 197 185 185 189 189 189 193 193 187
4 8 14 15 18 23 24 27 30 31 37 41 42 48 49 52 54 60 64 66 67 67 69 69 74 77 90 94 84 96 118 131 128 130 137 137 144 103 73 69 84 87 91 98 102 98 100 104 104 112 118 126 131 131 133 134 136 143 149 149 152 158 160 165 167 167 164 164 167 166 169 168 166 172 188 198 184 181 187 179 177 180 184 182 181
11 9 13 9 13 19 25 25 22 22 24 29 31 33 35 42 44 47 48 48 49 54 53 46 43 55 69 77 85 87 83 84 96 103 96 96 86 74 70 71 69 82 96 101 102 100 96 92 92 99 105 111 119 125 129 137 146 151 154 159 162 161 165 169 170 168 166 167 166 166 166 168 171 181 184 175 179 178 170 176 178 174 175 182 181
14 19 14 19 20 18 16 15 26 27 27 25 26 30 36 41 41 35 35 36 32 33 33 33 25 35 39 47 57 58 56 59 59 60 59 57 55 49 40 31 31 40 54 64 86 111 118 118 111 107 111 113 123 141 152 158 160 157 157 161 162 165 165 161 161 162 159 159 164 164 162 166 170 172 174 174 173 173 177 175 175 179 183 183 188
15 17 18 24 24 27 22 22 27 32 32 36 39 36 32 36 37 36 35 34 34 33 34 31 33 35 32 42 54 62 56 52 57 54 47 49 43 43 35 23 23 33 47 48 49 56 73 81 80 72 67 68 64 66 68 79 102 130 143 145 151 153 157 161 164 164 161 159 158 157 160 162 162 163 168 172 168 174 179 179 183 186 185 191 191
13 20 19 20 20 23 20 22 29 31 34 33 32 30 31 29 32 32 34 31 31 37 36 31 31 38 38 30 35 40 32 43 44 44 43 48 47 37 32 31 32 31 32 28 43 56 60 68 73 74 62 50 45 45 53 53 56 55 63 97 126 142 150 152 150 144 142 145 145 148 154 161 165 169 172 175 178 179 184 186 186 187 194 195 196
8 16 20 20 21 21 20 22 25 28 31 30 32 29 25 26 24 31 33 34 35 36 35 36 37 38 39 38 40 42 37 43 44 45 44 40 43 37 32 32 35 37 35 29 35 50 52 63 56 45 52 47 45 43 40 40 42 44 48 55 63 70 74 82 89 104 119 129 136 144 150 155 164 168 169 172 177 187 189 192 189 195 199 200 203
7 16 19 21 19 23 22 23 28 28 30 30 33 33 31 29 33 36 35 40 42 40 36 35 38 36 37 39 40 38 38 44 42 42 45 42 38 34 33 34 38 42 38 37 38 40 41 38 35 45 46 44 44 43 43 50 51 54 53 48 50 56 54 61 69 84 90 102 112 120 136 145 157 160 172 176 179 189 191 195 196 198 200 202 204
12 14 17 19 21 24 21 21 27 26 29 28 31 34 35 33 32 33 32 30 34 35 38 34 35 35 42 36 33 38 39 38 41 42 38 36 34 30 31 36 37 37 40 39 38 39 41 43 39 42 43 41 41 44 41 44 49 51 49 50 54 59 60 61 61 59 64 70 83 99 116 136 151 162 170 182 188 191 194 203 199 201 203 204 202
16 18 19 20 26 24 21 20 23 23 22 25 31 31 29 32 33 29 31 34 34 30 33 35 32 32 41 42 39 40 39 42 41 35 36 37 34 33 34 38 39 38 43 41 38 36 33 34 38 40 40 36 36 38 45 39 43 44 47 46 58 60 59 57 57 57 65 76 70 83 87 100 122 151 170 185 192 198 199 203 202 199 203 203 201
17 20 23 22 24 24 21 23 23 24 20 23 29 34 30 34 34 33 30 34 39 35 29 31 35 32 34 36 37 37 37 39 38 37 34 34 28 30 35 35 37 38 38 35 33 30 33 33 34 34 35 33 30 32 30 23 38 43 41 44 49 52 54 53 52 49 43 33 47 100 136 165 164 181 192 193 192 201 204 207 204 203 201 204 204
16 20 23 25 24 21 23 26 24 24 26 27 25 28 30 30 29 28 29 30 34 31 27 26 29 31 35 35 39 40 41 40 37 36 33 30 28 28 31 35 34 34 33 32 30 31 30 30 26 28 27 27 25 19 12 21 35 39 39 37 36 38 40 43 47 52 54 52 45 41 41 51 143 176 199 199 202 202 209 205 203 203 202 202 203